37.08339, -88.60005

Hourly Observations for February 13, 2018

Temp ( °F °C ) Dew Point ( °F °C ) Humidity (%) Winds ( mph kmh ) Pressure ( in mb ) Visibility ( mi km ) Precip ( " mm )
12:12 am 00:12 Clear with Mist and Fog 33 1 29 -2 85 Calm 30.30 1026 3 4 0.00 0.00
12:20 am 00:20 Mostly Cloudy with Mist and Fog 32 0 29 -2 88 Calm 30.30 1026 1 2 0.00 0.00
12:26 am 00:26 Mostly Cloudy with Fog 32 0 29 -2 88 Calm 30.30 1026 0 0 0.00 0.00
12:36 am 00:36 Mostly Cloudy with Fog 32 0 29 -2 88 Calm 30.30 1026 1 1 0.00 0.00
12:53 am 00:53 Mostly Cloudy with Freezing Fog 31 -1 29 -2 92 Calm 30.27 1025 1 1 0.00 0.00
1:00 am 01:00 Partly Cloudy with Mist and Fog 32 0 29 -2 88 Calm 30.30 1026 1 2 0.00 0.00
1:07 am 01:07 Mostly Cloudy with Mist and Fog 31 -1 29 -2 92 Calm 30.30 1026 1 1 0.00 0.00
1:23 am 01:23 Mostly Cloudy with Freezing Fog 31 -1 28 -2 89 Calm 30.30 1026 0 0 0.00 0.00
1:31 am 01:31 Mostly Cloudy with Freezing Fog 31 -1 28 -2 89 Calm 30.30 1026 1 1 0.00 0.00
1:53 am 01:53 Mostly Cloudy with Freezing Fog 30 -1 28 -2 92 Calm 30.27 1025 0 0 0.00 0.00
2:07 am 02:07 Mostly Cloudy with Freezing Fog 30 -1 27 -3 88 Calm 30.33 1027 1 1 0.00 0.00
2:19 am 02:19 Mostly Cloudy with Freezing Fog 30 -1 27 -3 88 Calm 30.33 1027 0 0 0.00 0.00
2:53 am 02:53 Mostly Cloudy with Freezing Fog 30 -1 27 -3 88 Calm 30.30 1026 1 1 0.00 0.00
3:02 am 03:02 Mostly Cloudy with Freezing Fog 30 -1 27 -3 88 Calm 30.33 1027 0 0 0.00 0.00
3:09 am 03:09 Mostly Cloudy with Freezing Fog 30 -1 27 -3 88 Calm 30.33 1027 0 0 0.00 0.00
3:53 am 03:53 Mostly Cloudy with Freezing Fog 31 -1 28 -2 89 Calm 30.30 1026 0 0 0.00 0.00
4:53 am 04:53 Mostly Cloudy with Freezing Fog 30 -1 27 -3 88 NNE 5 7 30.30 1026 1 1 0.00 0.00
5:45 am 05:45 Mostly Cloudy with Freezing Fog 30 -1 27 -3 88 ESE 5 7 30.33 1027 0 0 0.00 0.00
5:53 am 05:53 Mostly Cloudy with Freezing Fog 30 -1 27 -3 88 SE 6 9 30.30 1026 1 1 0.00 0.00
6:15 am 06:15 Mostly Cloudy with Mist and Fog 29 -2 27 -3 92 Calm 30.33 1027 1 2 0.00 0.00
6:37 am 06:37 Mostly Cloudy with Freezing Fog 30 -1 27 -3 88 Calm 30.33 1027 1 1 0.00 0.00
6:48 am 06:48 Mostly Cloudy with Freezing Fog 30 -1 27 -3 86 Calm 30.33 1027 0 0 0.00 0.00
6:53 am 06:53 Mostly Cloudy with Freezing Fog 29 -2 27 -3 92 Calm 30.30 1026 0 0 0.00 0.00
7:09 am 07:09 Mostly Cloudy with Freezing Fog 30 -1 27 -3 88 Calm 30.33 1027 1 1 0.00 0.00
7:53 am 07:53 Sunny with Mist and Fog 32 0 30 -1 92 E 3 6 30.30 1026 5 8 0.00 0.00
8:53 am 08:53 Sunny 37 3 34 1 89 ESE 14 22 30.30 1026 9 14 0.00 0.00
9:53 am 09:53 Sunny 43 6 37 3 80 ESE 10 17 30.27 1025 10 16 0.00 0.00
10:53 am 10:53 Sunny 46 8 35 2 66 SE 8 13 30.27 1025 10 16 0.00 0.00
11:53 am 11:53 Sunny 50 10 35 2 57 ESE 10 17 30.24 1024 10 16 0.00 0.00
12:53 pm 12:53 Sunny 52 11 33 1 49 ESE 13 20 30.18 1022 10 16 0.00 0.00
1:53 pm 13:53 Sunny 54 12 33 1 45 S 12 19 30.15 1021 10 16 0.00 0.00
2:53 pm 14:53 Sunny 55 13 33 1 44 ESE 9 15 30.12 1020 10 16 0.00 0.00
3:53 pm 15:53 Sunny 55 13 34 1 45 ESE 8 13 30.09 1019 10 16 0.00 0.00
4:53 pm 16:53 Cloudy 54 12 32 0 43 SSE 10 17 30.06 1018 10 16 0.00 0.00
5:53 pm 17:53 Cloudy 53 12 33 1 47 SSE 8 13 30.06 1018 10 16 0.00 0.00
6:53 pm 18:53 Mostly Cloudy 52 11 35 2 53 SSE 8 13 30.03 1017 10 16 0.00 0.00
7:53 pm 19:53 Cloudy 53 12 35 2 51 SSE 5 7 30.03 1017 10 16 0.00 0.00
8:11 pm 20:11 Cloudy 53 12 36 2 52 SE 6 9 30.03 1017 10 16 0.00 0.00
8:53 pm 20:53 Cloudy 54 12 35 2 49 S 9 15 30.00 1016 10 16 0.00 0.00
9:53 pm 21:53 Cloudy 55 13 38 3 53 N 6 9 30.00 1016 10 16 0.00 0.00
10:53 pm 22:53 Cloudy 56 13 45 7 67 SSE 6 9 30.00 1016 10 16 0.00 0.00
11:48 pm 23:48 Cloudy 55 13 48 9 77 SSW 13 20 30.03 1017 10 16 0.00 0.00
11:53 pm 23:53 Cloudy 56 13 49 9 77 SSW 9 15 30.03 1017 10 16 0.00 0.00
Site Deisgn Provided by Innovations Branding House, Paducah, KY